Location: Mahannah Oil Field
(37.4664°N, 96.6003°W)
Time: 02:14:10
(UTC+00:00)

A-11 Canister half - Pass Details

Date: 26 January 2021
Orbit: 1525 x 1684 km, 47.3° (Epoch: 02 March)

Event Time Altitude Azimuth Distance (km) Brightness Sun altitude
Rises 21:37:32 0° 260° (W) 4,671 12.4 20.1°
Reaches altitude 10° 21:40:39 10° 265° (W) 3,696 11.9 19.6°
Maximum altitude 21:49:47 56° 343° (NNW) 1,802 9.5 18.3°
Drops below altitude 10° 21:59:11 10° 60° (ENE) 3,796 10.5 16.9°
Sets 22:02:26 0° 65° (ENE) 4,805 11.0 16.4°
